Aeroporto :







RITROVATECI SU...

 
LOGIN :

Iscrizione | Disclaimer

   EN    FR    IT 

 









Sommario :    VFR   VFR Marginale   IFR   IFR Intensivo   IFR Molto Intensivo
Visibilità : 
Base nubi : 
>= 8 km
>= 3000ft
5 / 8 km
1000 / 3000 ft
1500m / 5 km
500 / 1000 ft
800 / 1500m
200 / 500 ft
< 800m
< 200 ft
Simboli :   Temporali  Nebbia  Neve Forte  Precipitazioni Forti  Vento > 20 kt






- Altitudine del aeroporto : 488 ft
- Codice IATA : EEN


KEEN - Dillant Hopkins

ULTIMO METAR :
  • 250656Z AUTO 00000KT 10SM OVC090 00/M02 A2991 RMK AO2 SLP136 T00001022 FZRANO $

METARs OBSOLETI :
  • 250556Z AUTO 00000KT 10SM FEW090 M01/M02 A2992 RMK AO2 SLP140 T10061022 10022 21006 58010 FZRANO $
  • 250456Z AUTO 00000KT 10SM CLR 00/M02 A2995 RMK AO2 SLP149 T00001022 401391083 FZRANO $

TAF N/A



MetMap, La meteo Aeronautica in un colpo d'occhio ! - Copyright ORBIFLY Dicembre 2007 - Disclaimer

ORBIFLY MET'MAP TEAM :

Programmazione e sviluppo : Alexandra Zaïnal
Concezione : Baudouin d'Aumeries
Aiuto per la programmazione : Marc-Olivier Méhu
Supporto tecnico e logistico : Manuel Goepfert
Aiuto per la traduzione : Arnaldo La Scala

Contatto : metmap@orbifly.com




FONTI E CREDITI :

   NOAA